Toronto Pearson, Ontario

4:49 AM EDT on July 25, 2017 (GMT -0400)
Toronto-Pearson International

Weather History for CYYZ - October, 2012

Change the Weather History Date:

Friday, October 12, 2012

  Actual Average Record
Temperature  
Mean Temperature 42 °F -  
Max Temperature 47 °F 52 °F 72 °F (2015)
Min Temperature 37 °F 35 °F 32 °F (2006)
Degree Days  
Heating Degree Days 23    
Moisture  
Dew Point 29 °F    
Average Humidity 60    
Maximum Humidity 87    
Minimum Humidity 33    
Precipitation  
Precipitation 0.01 in 0.09 in - ()
Sea Level Pressure  
Sea Level Pressure 30.30 in    
Wind  
Wind Speed 10 mph ()    
Max Wind Speed 17 mph    
Max Gust Speed 22 mph    
Visibility 14.6 miles    
Events Rain    
Averages and records for this station are not official NWS values.
T = Trace of Precipitation, MM = Missing Value Source: Averaged Metar Reports

Daily Weather History Graph

Daily Weather History Graph

Search for Another Location

Airport or City:

Trip Planner

Search our weather history database for the weather conditions in past years. The results will help you decide how hot, cold, wet, or windy it might be!

Date:

Astronomy

Oct. 12, 2012 Rise Set
Actual Time 7:29 AM EDT 6:39 PM EDT
Civil Twilight 7:00 AM EDT 7:08 PM EDT
Nautical Twilight 6:27 AM EDT 7:41 PM EDT
Astronomical Twilight 5:54 AM EDT 8:14 PM EDT
Moon 4:05 AM EDT (10/12) 4:52 PM EDT (10/12)
Length of Visible Light 12h 07m
Length of Day
11h 09m
Waning Crescent, 11% of the Moon is Illuminated
Oct 12
Waning Crescent
Oct 15
New
Oct 21
First Quarter
Oct 29
Full
Nov 6
Last Quarter

Hourly Weather History & Observations

Time (EDT) Temp. Windchill Dew Point Humidity Pressure Visibility Wind Dir Wind Speed Gust Speed Precip Events Conditions
12:00 AM 46.4 °F 41.5 °F 42.8 °F 87% 30.06 in 6.0 mi West 10.4 mph - N/A Rain Light Rain Showers
1:00 AM 46.4 °F 39.5 °F 39.2 °F 76% 30.08 in 15.0 mi WNW 17.3 mph - N/A Rain Light Rain Showers
1:20 AM 44.6 °F 38.4 °F - N/A% - 15.0 mi WNW 12.7 mph - N/A   Overcast
1:28 AM 44.6 °F 37.8 °F - N/A% - 12.0 mi NW 15.0 mph - N/A Rain Light Rain Showers
2:00 AM 44 °F - 38 °F 73% 30.09 in 15 mi West 11.5 mph - - Rain Light Rain Showers
2:00 AM 44.6 °F 38.8 °F 37.4 °F 76% 30.09 in 15.0 mi West 11.5 mph - N/A Rain Light Rain Showers
2:50 AM 42.8 °F 38.0 °F - N/A% - 15.0 mi West 8.1 mph - N/A   Overcast
3:00 AM 42.8 °F 37.5 °F 37.4 °F 81% 30.09 in 15.0 mi West 9.2 mph - N/A   Overcast
4:00 AM 42.8 °F 36.6 °F 37.4 °F 81% 30.11 in 15.0 mi West 11.5 mph - N/A   Mostly Cloudy
5:00 AM 41.0 °F 34.3 °F 35.6 °F 81% 30.14 in 15.0 mi WNW 11.5 mph - N/A   Partly Cloudy
6:00 AM 39.2 °F 30.2 °F 33.8 °F 81% 30.18 in 15.0 mi NW 17.3 mph - N/A   Partly Cloudy
7:00 AM 39.2 °F 30.8 °F 33.8 °F 81% 30.23 in 15.0 mi North 15.0 mph - N/A   Partly Cloudy
8:00 AM 37 °F - 31 °F 72% 30.27 in 15 mi North 12.7 mph - -   Partly Cloudy
8:00 AM 37.4 °F 29.8 °F 32.0 °F 81% 30.27 in 15.0 mi NNW 11.5 mph - N/A   Partly Cloudy
9:00 AM 39.2 °F 31.6 °F 30.2 °F 70% 30.32 in 15.0 mi NNW 12.7 mph - N/A   Partly Cloudy
10:00 AM 41.0 °F 33.1 °F 28.4 °F 61% 30.35 in 15.0 mi North 15.0 mph - N/A   Partly Cloudy
11:00 AM 42.8 °F 36.2 °F 24.8 °F 49% 30.38 in 15.0 mi North 12.7 mph 19.6 mph N/A   Scattered Clouds
12:00 PM 44.6 °F 38.1 °F 24.8 °F 46% 30.40 in 15.0 mi North 13.8 mph 21.9 mph N/A   Scattered Clouds
1:00 PM 46.4 °F 40.1 °F 24.8 °F 43% 30.42 in 15.0 mi North 15.0 mph - N/A   Scattered Clouds
2:00 PM 45 °F - 25 °F 33% 30.41 in 15 mi NNW 10.4 mph - -   Partly Cloudy
2:00 PM 44.6 °F 39.7 °F 24.8 °F 46% 30.41 in 15.0 mi North 9.2 mph 19.6 mph N/A   Scattered Clouds
3:00 PM 46.4 °F 40.7 °F 23.0 °F 40% 30.40 in 15.0 mi North 12.7 mph 18.4 mph N/A   Scattered Clouds
4:00 PM 46.4 °F 40.7 °F 21.2 °F 37% 30.40 in 15.0 mi North 12.7 mph - N/A   Scattered Clouds
5:00 PM 46.4 °F 44.3 °F 19.4 °F 34% 30.41 in 15.0 mi NNW 4.6 mph - N/A   Partly Cloudy
6:00 PM 44.6 °F 39.7 °F 19.4 °F 37% 30.42 in 15.0 mi North 9.2 mph - N/A   Partly Cloudy
8:00 PM 39.2 °F 34.2 °F 21.2 °F 49% 30.44 in 15.0 mi NNE 6.9 mph - N/A   Partly Cloudy
9:00 PM 39.2 °F 35.0 °F 23.0 °F 52% 30.44 in 15.0 mi NNE 5.8 mph - N/A   Clear
10:00 PM 41.0 °F - 23.0 °F 49% 30.46 in 15.0 mi Calm Calm - N/A   Clear
11:00 PM 39.2 °F - 23.0 °F 52% 30.45 in 15.0 mi Calm Calm - N/A   Clear